User: anonymous   Login
Location: Chacón
(10.5789°N, 66.9317°W)
Time: 12:08:09
(UTC+00:00)
Language:

Cosmos 2233 Rocket - Orbit

View from above orbital plane
View from above orbital plane
View from above satellite
View from above satellite

Ground track
Ground track

The orbit data is extracted from the following two-line orbital elements,

1 22488U 93008B   24200.85601597  .00000127  00000-0  11078-3 0  9993
2 22488  82.9445 311.8529 0025677 167.2532 313.0975 13.77862221580426
Epoch (UTC): 18 July 2024 20:32:39
Eccentricity: 0.0025677
inclination: 82.9445°
perigee height: 952 km
apogee height: 990 km
right ascension of ascending node: 311.8529°
argument of perigee: 167.2532°
revolutions per day: 13.77862221
mean anomaly at epoch: 313.0975°
orbit number at epoch: 58042

The dashed part of the orbit path shows where the satellite is in the earth's shadow,  

DLR